Theta_e
345 345 348 347 346 346 347 347 349 349 351 350 348 344 344 345 351 354 356 361 361 361 362 363 365 365 364 362 362 363 363 363 364 362 362 362 362 364 361 360 360 365 362 362 363 364 366 368 364 365 369 369 370 372 374 373 375 372 374 374 374 374 375
342 342 344 345 344 344 345 347 353 349 350 349 348 351 347 347 351 352 357 362 362 361 360 362 365 365 364 363 362 364 363 363 363 365 362 365 366 366 363 364 364 366 370 365 366 368 368 366 365 365 366 368 367 372 370 372 374 373 371 374 370 374 373
339 341 343 345 343 340 342 344 347 352 352 349 349 348 349 353 353 354 358 361 363 363 362 362 365 365 364 364 362 362 363 362 362 360 359 356 358 354 358 363 362 361 359 362 366 362 363 363 371 369 366 364 363 370 371 371 373 371 373 375 371 369 373
338 340 342 344 344 346 345 346 346 350 352 351 351 352 353 358 358 356 357 360 362 364 363 361 362 363 363 363 362 362 361 362 361 358 357 356 355 355 357 361 361 359 361 358 355 355 355 362 363 369 367 367 367 364 366 367 366 369 371 374 373 370 374
337 340 341 343 345 345 347 346 347 349 351 354 350 354 353 355 355 355 353 357 362 362 364 362 362 362 363 362 358 358 360 360 360 359 358 357 359 357 355 353 356 355 358 356 360 360 367 361 361 363 365 369 364 367 366 367 366 369 370 371 372 370 370
334 336 339 340 342 343 347 347 350 352 349 349 352 350 351 355 357 356 357 359 362 358 360 363 365 363 362 361 360 358 361 363 362 362 360 360 360 355 353 354 354 355 353 355 356 355 363 358 358 359 359 358 357 357 359 361 361 363 368 369 369 367 364
332 335 338 341 342 344 345 347 348 350 352 350 357 356 355 354 353 357 355 357 358 355 358 356 357 362 363 363 362 362 361 359 361 357 358 356 357 356 355 355 356 353 352 356 355 355 353 357 358 360 360 358 359 356 359 364 363 363 367 368 369 370 370
331 334 337 337 339 342 345 347 348 352 355 355 353 352 354 353 353 355 356 353 355 356 357 358 355 359 361 362 362 359 359 360 359 358 357 354 353 354 355 354 355 357 356 352 356 355 351 354 353 358 358 357 358 359 360 364 367 359 363 364 366 365 360
330 332 332 335 337 338 340 344 348 351 352 353 354 354 355 354 353 353 356 356 353 354 355 359 357 354 357 361 361 362 359 360 360 359 356 352 351 350 351 353 354 356 354 350 350 354 355 354 352 358 359 357 359 359 361 364 361 360 361 362 364 363 360
328 329 331 333 335 335 336 338 342 348 350 349 350 352 353 355 356 355 355 357 356 355 354 353 355 358 355 353 358 358 357 361 361 358 355 352 350 349 349 350 352 355 353 351 350 350 354 356 354 358 362 358 360 360 357 363 359 357 358 364 363 363 364
328 328 329 330 331 332 334 334 336 340 347 347 349 349 351 354 355 356 358 357 354 356 357 354 354 354 354 356 358 356 356 354 355 356 357 353 350 349 349 348 350 354 352 351 348 349 350 355 358 359 360 355 357 361 358 358 359 359 356 357 359 361 360
328 327 327 328 328 329 330 332 333 336 342 346 347 348 350 351 353 356 358 357 355 351 353 353 353 354 355 356 359 357 355 355 353 351 354 355 351 349 349 348 347 350 353 352 350 349 350 352 352 356 358 356 355 357 360 359 360 361 360 355 355 358 358
327 327 327 327 328 328 331 331 331 333 336 341 344 345 347 351 351 351 350 350 353 354 357 360 357 357 356 356 358 359 360 358 356 351 350 353 352 350 349 348 346 346 348 352 351 348 346 349 351 353 357 357 356 355 358 360 359 362 363 361 357 355 357
329 326 328 328 328 328 328 330 330 331 332 335 340 341 344 349 350 349 350 351 352 357 357 357 359 358 360 358 356 356 357 359 355 350 350 354 355 354 349 347 347 347 348 351 350 347 346 345 348 352 352 356 356 356 358 360 359 361 363 362 359 356 357
324 324 326 326 327 328 328 327 330 331 331 333 336 338 340 343 342 347 352 353 355 356 354 355 355 356 356 359 357 356 357 356 358 359 357 355 355 357 355 352 351 352 351 352 349 347 346 346 344 349 350 352 355 356 356 356 358 358 360 361 360 357 353
323 323 324 325 326 326 328 328 330 331 332 332 331 333 335 338 341 344 347 348 352 354 354 355 354 355 357 355 353 355 358 358 359 359 356 354 355 360 364 358 358 350 351 351 351 351 351 350 348 345 349 349 353 355 355 355 355 356 349 351 359 358 352
322 323 324 325 326 326 328 328 329 330 331 331 331 330 334 336 338 341 342 344 350 354 354 353 353 357 355 355 354 355 357 360 359 356 356 358 358 359 362 365 363 360 360 357 355 354 357 352 349 345 343 348 349 352 351 352 352 346 337 338 344 356 356
322 323 323 325 326 327 327 327 328 329 330 331 330 331 332 334 336 338 339 342 343 346 351 353 353 353 355 354 355 357 357 356 359 360 361 363 363 365 365 367 366 361 364 359 355 363 360 354 352 352 347 343 346 347 349 351 348 334 333 335 335 345 356
322 322 323 324 325 326 326 327 328 329 330 331 333 335 335 334 333 336 339 341 342 345 344 347 347 350 352 355 355 354 353 356 358 359 358 358 361 360 356 357 358 357 352 351 355 356 359 360 357 355 354 349 349 345 347 350 342 332 329 332 333 334 346
321 323 323 323 324 325 326 327 328 329 331 333 332 330 332 336 333 334 337 342 344 344 345 343 343 345 346 351 352 352 353 354 354 354 356 357 356 357 356 354 354 354 356 357 353 351 356 355 357 359 359 356 354 355 351 348 343 330 326 328 329 331 337
320 321 322 322 323 324 324 324 326 328 329 331 332 332 331 331 332 334 334 336 337 340 343 341 340 341 341 343 345 347 349 349 352 353 355 356 356 355 355 354 354 354 356 355 353 351 351 350 354 356 359 358 356 355 354 349 336 327 324 324 325 329 334
318 319 319 320 322 324 325 324 323 325 328 330 332 331 331 332 332 333 334 335 334 338 341 341 341 339 341 341 342 343 345 347 348 350 353 354 353 353 353 354 354 353 356 354 352 352 354 352 352 354 358 358 357 354 355 353 335 326 321 321 323 327 343
319 319 319 320 319 322 324 324 324 326 329 328 328 327 328 334 334 334 334 334 333 337 339 339 338 337 338 339 340 342 343 345 346 347 350 353 351 351 353 354 351 351 356 354 354 354 352 352 355 358 358 357 358 359 358 358 345 328 318 319 320 326 346
318 318 317 317 319 319 323 322 322 323 324 327 329 329 330 331 332 334 334 334 333 335 335 335 335 335 337 336 337 339 343 346 347 347 348 351 349 351 351 353 357 357 358 356 356 354 352 353 353 355 357 357 357 356 359 358 353 332 316 316 318 331 347
316 317 316 316 315 316 319 321 321 321 323 324 324 326 329 333 335 331 331 332 332 333 333 333 333 334 336 336 337 337 340 343 346 346 347 349 351 351 350 351 353 356 359 359 358 356 355 355 354 355 356 356 357 361 360 359 350 333 317 315 315 329 349
315 315 315 315 316 319 319 322 321 318 318 319 322 324 326 325 327 329 330 331 332 332 333 333 334 335 337 338 338 337 339 341 346 346 345 348 350 352 352 352 353 355 357 356 358 356 356 356 356 355 355 356 356 355 355 359 359 353 324 312 312 319 350
315 315 315 315 316 321 318 319 318 317 318 322 327 321 321 324 324 325 328 329 329 329 330 334 335 335 335 335 335 336 338 340 342 343 345 349 350 352 354 352 352 354 356 357 356 355 355 354 354 355 356 357 358 358 358 360 362 354 323 313 311 314 331
313 314 315 318 319 319 318 318 320 320 320 321 319 320 321 323 325 326 327 327 327 329 331 333 334 334 335 335 334 335 336 337 339 340 342 348 350 350 351 354 353 353 356 356 356 354 353 353 355 354 354 356 359 361 363 360 356 359 331 314 310 310 314
314 313 313 314 315 316 317 317 318 317 319 320 321 321 321 321 323 324 325 325 327 328 332 333 333 333 334 335 334 335 336 338 337 337 339 343 348 348 349 351 349 350 354 355 353 353 352 354 355 355 355 357 358 359 360 364 359 345 354 324 310 310 310
314 314 313 314 314 315 316 316 317 317 318 319 321 322 323 324 323 324 323 325 329 329 332 334 333 334 333 333 333 333 334 334 336 339 341 345 349 349 349 351 351 351 350 353 352 350 350 350 351 351 350 350 354 354 357 359 363 351 349 341 311 310 309
313 314 314 313 314 317 317 315 315 315 317 319 321 322 323 323 322 323 323 327 330 332 330 331 331 332 332 331 331 332 332 333 336 338 339 344 343 343 345 346 348 348 350 351 349 348 346 347 350 349 349 348 347 347 350 356 361 363 357 335 316 309 309
314 315 314 315 315 316 315 315 316 316 316 318 320 320 323 322 322 322 325 326 329 328 328 329 331 332 331 330 330 330 331 330 331 333 337 335 338 342 344 344 347 350 350 349 348 347 346 346 347 348 348 348 348 348 351 353 356 359 365 352 335 322 311
314 314 315 314 316 316 316 316 315 315 316 316 319 319 319 319 320 322 324 326 325 325 328 329 330 330 330 331 328 329 330 330 329 330 331 333 334 335 335 336 341 350 351 349 347 347 346 345 344 344 344 346 349 351 353 355 358 359 361 364 364 358 344
314 314 315 316 316 317 316 315 315 315 315 316 317 318 319 319 320 321 322 322 324 325 327 327 328 326 327 327 328 328 328 329 331 331 330 331 331 330 331 334 335 337 340 339 341 342 342 342 342 342 341 341 343 345 346 348 352 355 357 359 360 360 359
313 314 314 314 315 315 315 315 314 315 315 315 316 317 318 318 319 320 321 322 322 325 325 326 327 329 327 326 326 326 331 329 330 329 329 329 332 331 335 333 332 336 337 338 343 342 337 336 337 339 338 339 340 341 341 343 344 348 342 356 338 351 359
313 313 313 314 315 315 315 315 315 315 315 315 317 317 318 318 319 320 320 321 322 324 325 325 326 327 327 327 327 327 326 328 327 328 329 329 328 330 332 334 323 330 336 335 337 328 319 319 333 336 336 336 337 338 338 340 345 327 313 311 313 315 318
312 312 312 313 313 313 314 314 315 315 315 316 317 317 317 318 318 320 320 322 323 324 324 325 325 325 325 326 326 327 328 326 327 329 331 330 331 332 332 332 339 314 310 319 326 320 313 309 308 309 312 325 329 331 322 320 318 313 313 313 311 306 305
313 312 312 313 313 313 313 314 314 314 315 315 316 316 317 317 318 320 320 322 322 322 322 323 324 324 324 323 325 328 328 326 327 327 327 329 330 331 331 330 330 333 321 305 308 309 304 303 304 305 306 307 312 322 329 320 312 309 309 309 308 307 304
Wind_Speed
7 6 5 3 5 3 1 4 6 5 6 8 10 13 15 12 11 12 13 13 14 14 13 12 12 11 11 10 10 9 8 8 6 7 6 6 5 5 6 6 6 5 6 6 5 5 5 4 8 6 6 6 4 5 4 5 4 4 3 3 4 1 1
5 6 6 5 6 5 5 4 4 7 9 12 13 10 10 13 10 12 13 14 15 14 14 13 13 11 11 10 10 9 9 9 8 7 7 6 6 5 6 6 5 5 4 5 5 3 4 4 6 6 6 6 5 5 5 4 4 4 4 3 3 4 3
7 6 5 5 6 6 5 6 9 6 10 12 11 12 10 10 11 10 12 15 15 13 13 13 13 12 11 10 10 11 10 10 10 10 10 9 10 10 7 5 5 5 6 4 4 5 5 5 3 4 5 6 6 5 5 5 4 4 4 4 4 4 3
7 9 4 10 8 6 8 10 12 8 6 8 10 11 8 1 5 9 10 15 15 14 14 14 14 14 12 11 11 10 11 10 10 11 12 10 10 8 7 6 6 6 6 7 7 7 7 5 6 4 5 5 5 7 5 6 6 5 5 4 3 4 4
12 9 8 6 12 11 9 9 11 10 14 8 10 9 8 6 3 6 11 12 15 15 14 14 14 13 11 12 11 11 11 12 11 10 10 8 8 8 8 10 9 8 7 8 5 7 4 7 7 5 5 4 4 5 6 5 5 6 4 5 4 4 4
9 10 9 5 4 5 7 10 10 8 11 13 8 9 7 6 2 7 6 5 4 2 8 11 11 12 12 13 12 11 11 10 10 9 9 8 7 10 9 9 9 9 10 9 7 7 5 7 6 7 8 8 7 7 7 6 5 6 5 5 5 4 4
7 8 8 11 12 9 5 2 5 8 6 6 6 7 6 7 7 5 5 4 7 9 7 7 12 12 10 10 11 11 12 13 11 13 10 12 10 9 9 8 8 10 8 8 8 7 7 6 7 8 7 8 7 8 6 6 6 5 5 5 5 4 3
7 5 6 11 12 13 11 8 7 5 5 6 5 4 5 5 6 3 3 4 3 4 2 1 6 9 7 10 11 13 12 13 12 12 10 13 11 11 10 9 8 8 8 9 8 8 10 9 9 8 8 8 7 6 6 7 5 6 4 6 5 5 5
10 9 11 10 10 11 13 11 9 9 9 8 6 6 4 3 2 3 4 5 4 3 5 5 5 6 11 9 10 11 11 12 12 12 13 14 13 15 13 11 11 8 9 10 10 8 8 10 10 7 8 7 6 7 5 7 7 5 5 5 6 6 6
11 10 10 11 10 11 11 11 11 7 9 8 7 5 4 3 1 1 3 3 2 3 4 4 4 1 5 13 12 12 11 11 11 14 15 14 13 14 14 13 12 10 10 11 10 11 8 9 11 8 7 7 6 7 6 6 7 7 6 6 7 7 6
10 10 11 12 13 12 11 12 14 11 7 8 7 6 6 6 5 4 3 3 3 2 4 3 3 6 6 8 11 9 9 13 14 14 14 14 13 15 15 14 13 11 12 12 11 11 10 7 8 9 8 9 8 6 8 7 7 7 8 7 6 7 7
10 11 10 12 13 13 13 11 11 13 9 5 6 5 5 5 7 7 7 8 3 1 2 4 5 4 3 5 5 6 8 12 12 14 14 14 14 14 14 14 13 13 12 12 11 9 10 11 9 9 10 10 9 8 7 7 7 7 8 8 8 7 7
10 9 10 11 11 11 11 12 14 13 12 10 6 7 6 5 7 10 10 10 10 8 6 5 2 0 4 5 4 6 7 7 11 11 12 11 12 12 12 13 14 14 14 12 12 12 11 13 12 9 9 11 10 10 8 8 8 7 8 7 7 7 8
13 11 11 11 11 12 12 12 12 12 13 13 9 9 9 6 8 9 8 6 6 4 4 5 4 0 4 3 2 4 1 4 5 6 15 15 9 9 11 12 11 11 9 11 12 13 12 12 13 11 10 10 11 10 8 8 9 8 8 8 8 6 7
12 12 12 12 11 11 12 12 11 12 12 13 13 11 10 9 10 8 7 4 3 4 5 5 5 6 5 2 1 2 1 3 3 4 7 8 15 12 10 9 8 8 8 8 11 12 12 12 11 12 12 10 10 10 10 10 10 9 8 9 10 8 7
10 11 11 12 11 11 11 11 12 11 11 12 13 12 11 9 8 7 7 6 4 4 4 3 4 5 5 6 3 4 3 2 3 4 6 6 8 12 10 9 7 8 9 8 9 9 9 8 9 9 12 12 11 11 11 10 9 11 15 13 9 9 10
9 9 10 10 10 11 11 11 12 11 12 12 12 12 9 10 11 10 10 7 5 5 3 4 4 4 4 4 1 1 3 2 4 4 5 7 9 8 10 9 8 7 7 6 7 7 8 9 9 10 9 11 12 12 12 12 11 15 16 16 16 11 9
8 8 9 10 10 10 10 11 12 12 11 11 11 11 10 9 9 9 9 9 10 9 7 3 3 6 6 4 1 3 4 4 5 4 4 5 7 8 6 7 4 9 11 8 8 5 6 8 9 8 9 9 11 13 13 12 13 15 18 18 18 15 10
6 7 8 9 10 10 10 10 11 11 10 9 8 7 8 8 8 8 8 7 7 8 9 7 7 7 6 7 4 2 3 4 5 6 6 6 7 8 6 7 7 8 12 18 17 8 6 5 6 8 8 9 7 9 12 12 15 15 17 19 19 19 15
6 7 8 9 9 10 9 9 9 9 9 9 9 11 9 7 8 8 8 7 6 8 8 9 10 9 10 8 9 8 8 6 5 6 7 6 6 3 2 7 6 5 4 7 11 16 14 10 8 6 7 8 9 7 7 9 14 18 18 19 20 20 17
6 8 7 8 8 9 9 9 9 9 9 9 9 9 9 9 8 7 8 9 9 9 7 8 9 9 10 10 10 9 9 9 9 9 7 6 7 6 4 3 3 4 5 5 3 4 7 11 13 9 9 9 10 10 11 12 13 17 20 20 21 21 16
9 7 7 7 7 7 8 9 9 9 8 8 8 9 9 8 8 8 8 8 8 7 7 8 8 9 9 9 9 9 9 9 8 9 8 6 6 5 4 2 3 4 3 4 7 7 6 8 8 12 11 10 11 12 13 14 16 13 16 19 20 21 11
8 6 5 6 6 7 8 8 8 8 6 7 8 9 9 7 7 7 8 7 7 6 7 8 9 10 10 10 10 9 8 8 8 7 7 5 4 3 3 3 6 6 5 6 5 3 6 8 8 7 11 13 11 11 11 11 13 12 14 16 18 13 9
3 2 5 6 5 6 8 8 9 9 7 6 7 8 7 7 7 6 7 7 7 7 7 9 9 9 9 10 10 10 9 5 6 7 7 6 5 3 2 3 3 5 5 4 4 5 6 8 8 9 9 7 7 12 11 12 12 10 11 14 16 14 11
4 7 5 6 7 8 9 9 9 10 8 8 9 9 8 6 6 7 7 7 7 7 7 7 7 8 8 8 9 9 10 7 5 4 6 6 5 3 4 3 4 4 4 3 4 4 5 7 8 9 8 10 9 11 11 10 10 10 6 12 15 14 9
4 5 6 6 7 10 8 8 9 9 9 9 9 9 9 7 7 7 7 7 6 5 6 6 6 6 6 7 7 8 9 8 6 6 5 5 5 3 4 4 4 4 3 5 5 5 6 6 7 10 10 10 10 11 10 7 8 5 2 10 14 18 12
3 4 6 7 8 9 7 6 6 8 9 8 7 9 9 8 7 8 7 7 6 7 7 6 5 5 6 6 7 7 8 7 8 9 7 4 5 6 5 3 5 5 5 4 4 5 5 7 6 8 8 9 9 10 7 7 7 2 9 10 13 17 16
5 5 5 6 6 6 6 7 8 8 9 9 10 10 9 9 8 7 7 7 7 8 7 6 5 5 5 5 6 6 6 8 8 9 8 5 4 5 7 6 5 5 7 6 4 4 6 6 6 6 7 7 7 7 5 4 5 3 7 11 11 13 17
4 4 5 6 6 7 8 7 8 8 9 9 10 11 10 10 10 9 8 8 9 8 7 6 6 6 5 5 5 5 6 5 7 8 7 7 6 5 5 4 5 6 6 6 6 6 6 5 4 6 6 6 5 4 5 2 7 5 7 12 14 15 15
5 5 5 6 7 8 9 8 8 9 9 9 9 9 10 9 9 8 9 9 7 8 7 6 6 5 5 5 5 5 6 7 7 6 7 7 5 5 5 5 5 5 5 5 3 2 3 3 3 4 5 5 5 6 7 6 3 12 16 10 14 14 16
5 5 6 7 7 8 8 9 10 9 9 9 10 9 9 9 10 10 10 8 7 7 7 7 7 6 6 6 6 6 6 7 6 6 6 5 6 7 6 5 3 3 3 4 5 5 5 4 3 4 4 5 6 6 7 8 5 4 10 14 11 12 12
5 6 6 7 7 7 8 9 9 9 10 10 10 10 8 9 10 11 10 10 9 9 8 8 7 6 7 7 6 6 6 8 8 7 6 7 6 5 6 5 4 2 2 2 3 4 5 5 5 5 5 4 5 6 6 7 7 6 4 4 6 6 10
5 6 6 6 7 7 7 7 8 9 10 10 10 10 10 11 10 11 11 10 11 10 8 9 8 8 6 6 6 7 6 6 7 7 8 8 5 5 5 7 7 1 2 2 3 4 4 4 5 6 6 7 6 5 5 5 4 4 4 4 3 4 4
5 6 6 7 7 7 7 7 8 9 10 10 10 10 10 9 10 10 11 12 12 11 9 9 8 8 8 8 7 6 6 6 8 9 7 6 7 7 6 6 6 7 6 6 5 5 5 6 6 6 6 7 7 7 7 7 5 4 4 5 5 3 4
5 6 7 7 7 7 7 7 9 10 11 11 11 11 10 10 10 10 11 10 11 10 10 9 10 9 9 8 7 6 5 6 6 6 7 7 7 7 6 7 7 6 6 6 4 5 6 7 7 6 6 6 7 8 8 7 8 7 2 3 3 4 4
5 7 8 7 7 8 8 9 9 10 10 10 10 10 10 10 10 9 10 10 10 10 10 10 9 9 8 7 6 5 6 6 6 6 6 7 8 8 8 8 9 8 7 6 6 9 11 4 5 7 7 7 8 7 8 9 8 11 14 11 7 8 10
6 6 7 8 9 9 9 9 10 11 11 11 10 11 11 10 11 10 10 9 9 10 11 10 9 8 8 7 5 5 4 5 6 5 5 5 6 7 7 7 6 8 12 11 10 11 11 12 14 15 13 7 7 10 13 15 17 19 18 19 18 14 14
5 6 7 7 7 9 10 9 10 11 12 11 11 12 12 13 11 9 11 10 9 9 10 11 10 10 9 9 7 5 4 5 5 6 6 6 6 7 7 7 8 7 7 12 12 10 12 13 15 15 15 14 12 8 8 11 15 17 19 19 17 17 14
Wind_Direction
182 161 128 156 166 138 217 248 232 226 189 202 200 200 185 184 173 165 166 170 178 178 182 180 181 182 186 184 183 183 183 182 179 185 187 183 190 174 179 195 189 189 175 178 189 182 182 187 141 174 162 171 173 163 163 161 176 181 148 154 146 348 126
144 153 157 168 176 163 190 241 236 226 220 198 196 206 192 184 178 165 166 171 181 181 183 181 183 184 188 185 184 181 186 184 183 185 187 181 188 179 187 190 191 184 190 181 166 192 161 207 158 164 162 169 178 165 170 172 178 186 166 165 175 166 207
126 130 182 148 165 185 207 226 226 205 222 203 201 200 207 185 181 178 161 170 179 184 185 186 186 187 188 186 185 185 187 186 187 188 191 191 191 194 191 188 191 183 197 181 167 188 173 189 176 160 159 173 180 173 170 176 179 188 176 175 181 184 212
131 135 140 140 157 201 203 213 226 188 274 223 191 201 217 177 198 183 172 171 178 183 188 188 188 189 190 188 190 187 189 190 191 191 196 195 189 196 185 186 189 192 190 191 189 194 182 176 175 170 189 172 186 169 185 183 181 186 182 183 186 193 187
27 51 139 163 158 172 205 220 206 162 207 217 216 200 211 199 209 205 187 172 182 186 191 193 189 190 189 191 194 193 193 193 192 194 199 200 186 196 188 195 187 205 184 195 195 193 176 169 169 185 184 187 193 179 176 191 189 173 183 184 191 194 191
39 30 23 75 111 130 175 189 203 204 187 193 196 207 193 218 35 28 352 42 37 315 226 203 200 191 190 192 195 193 192 194 193 195 196 202 194 190 198 198 187 202 191 187 196 198 182 170 182 183 191 193 201 193 186 184 202 185 182 187 187 205 204
30 42 57 50 40 36 10 225 169 187 204 159 81 67 71 100 132 193 176 133 173 194 221 241 234 201 198 194 196 192 189 196 196 199 197 200 205 198 198 198 198 194 206 182 196 189 196 187 191 185 192 194 198 202 181 181 189 196 173 185 186 217 224
43 59 50 41 44 32 29 50 84 78 73 61 101 102 74 70 67 106 86 112 190 187 203 297 301 277 224 203 199 202 191 197 197 201 199 202 199 206 199 198 204 193 203 193 193 188 192 192 205 193 186 202 192 207 181 175 180 197 186 177 190 203 213
63 48 32 39 43 37 31 27 31 47 57 56 56 51 64 74 84 93 138 179 202 201 169 162 211 251 279 246 204 206 199 197 197 198 203 204 204 203 207 202 200 205 202 204 196 200 194 185 204 199 184 199 193 189 199 172 181 199 198 186 188 197 220
57 49 55 56 48 41 33 27 29 39 50 51 63 73 73 62 43 155 176 182 188 222 225 184 148 76 297 275 250 218 214 204 202 201 202 207 207 204 208 205 201 201 209 208 204 195 204 189 194 197 191 197 201 182 197 183 182 191 208 200 186 194 210
72 61 51 55 53 46 35 28 27 29 61 58 63 59 44 57 62 51 60 171 194 42 338 272 231 185 221 284 274 251 241 219 214 209 206 208 208 210 208 210 205 199 207 208 214 200 193 204 188 189 193 199 205 196 190 198 189 187 202 209 201 194 203
78 69 59 54 55 51 46 34 28 27 48 71 56 50 44 30 30 27 43 31 30 110 291 230 219 208 229 246 260 333 329 296 244 222 213 210 212 212 211 212 211 203 201 210 213 214 194 193 201 194 190 197 201 207 196 197 198 192 202 209 204 200 205
85 79 69 58 58 63 55 47 44 34 25 56 58 39 24 35 48 47 47 42 43 34 328 330 353 127 208 217 203 195 216 247 300 280 235 219 224 220 213 214 215 213 203 203 211 215 216 194 197 201 191 191 197 205 204 198 203 200 201 215 214 199 201
94 79 76 70 59 55 57 54 49 48 42 39 51 42 29 5 57 71 57 48 38 32 18 13 11 174 220 207 225 236 223 39 62 352 324 315 273 241 230 217 217 216 211 193 204 213 217 218 194 194 199 191 196 203 203 200 204 205 204 207 221 217 199
74 77 74 72 71 62 54 54 53 49 50 49 44 50 42 24 37 57 98 66 52 47 38 8 0 14 28 41 356 301 291 229 173 159 230 273 305 279 244 243 221 213 214 198 198 209 215 223 219 191 197 198 195 201 206 204 205 206 205 204 208 223 223
71 67 70 69 60 65 63 57 52 49 53 58 55 38 31 40 49 54 43 70 75 64 29 23 11 7 30 54 32 337 349 331 300 268 237 241 256 290 280 253 255 241 219 213 200 199 206 215 228 220 191 194 192 196 206 211 210 207 204 201 204 208 220
61 61 67 69 64 55 58 59 53 47 43 53 58 53 40 34 30 32 42 41 62 89 68 34 345 13 41 72 77 261 298 245 247 250 257 262 261 266 284 291 287 258 250 223 208 206 190 201 213 228 225 197 193 196 206 215 220 201 197 202 204 205 210
70 59 56 60 59 54 47 48 49 42 41 45 52 50 47 43 41 47 42 25 20 21 43 32 4 26 22 61 329 339 9 343 306 273 264 271 283 283 327 322 326 307 304 281 239 214 204 198 206 213 229 231 208 201 207 214 220 205 194 197 202 204 209
63 47 47 47 55 55 48 41 41 40 33 35 43 63 62 49 45 33 33 41 27 15 14 18 31 34 25 16 39 41 357 332 331 324 324 328 331 6 341 294 333 8 354 328 308 279 233 232 212 209 220 233 244 222 205 209 211 205 194 197 198 203 209
74 53 53 40 44 53 46 43 36 37 26 29 33 35 43 48 52 37 15 10 33 26 20 16 16 24 19 18 26 25 26 12 8 356 0 345 333 3 357 334 354 20 25 321 335 331 311 267 236 229 220 226 239 247 244 221 204 197 192 197 199 202 203
68 69 51 47 43 47 44 37 33 33 22 20 30 34 25 26 37 48 28 19 24 15 26 33 22 19 16 18 18 18 17 8 7 3 358 2 356 338 316 261 251 225 191 182 186 226 279 315 298 255 230 229 228 239 249 246 231 196 194 194 198 202 197
97 61 49 41 38 53 46 38 27 25 19 8 22 32 23 19 17 32 38 25 22 0 9 32 26 22 16 11 15 17 15 12 5 3 354 18 16 3 331 287 269 273 246 224 239 232 235 251 262 286 269 239 238 238 237 241 243 204 195 199 200 198 194
37 45 45 46 18 46 52 34 16 16 10 10 20 25 12 4 17 24 31 26 20 9 12 21 25 17 13 4 6 3 13 13 5 2 356 10 347 355 338 251 230 234 221 229 245 278 288 281 279 286 287 273 258 245 246 244 248 229 194 199 204 194 201
130 91 51 15 7 3 43 28 7 358 355 353 28 28 352 345 10 24 39 24 15 18 21 25 23 16 8 4 0 352 349 16 14 351 348 4 345 321 284 300 255 231 216 225 233 223 229 253 266 262 269 280 285 284 274 263 262 239 197 201 196 189 200
35 28 6 2 345 5 17 8 355 338 340 353 9 7 330 331 17 14 22 24 8 16 20 25 22 11 6 7 358 349 335 345 26 8 342 331 323 284 286 301 325 322 298 262 253 246 248 257 258 260 254 253 243 239 248 262 273 288 229 203 191 191 207
23 356 349 344 358 21 0 345 333 327 338 346 360 337 325 341 8 6 12 6 354 2 12 29 23 3 8 7 356 348 332 337 356 349 340 320 308 285 295 311 313 301 295 294 285 276 267 259 262 267 270 268 263 260 258 250 221 149 234 236 204 193 198
24 18 0 351 8 2 336 331 333 337 335 343 336 323 325 355 356 356 356 352 350 353 353 10 14 12 12 1 350 346 338 335 340 335 335 340 322 319 302 300 309 301 285 272 271 279 272 264 265 273 277 281 281 283 294 335 344 94 214 205 211 210 198
27 17 7 7 344 329 346 346 354 342 337 333 319 330 347 349 347 342 345 342 341 343 338 344 354 355 3 353 342 346 342 334 330 330 329 329 324 321 320 317 308 293 281 268 252 249 255 267 270 267 271 277 293 296 289 141 94 17 343 297 237 226 225
32 21 2 338 340 359 1 356 345 333 330 332 337 346 339 335 333 333 332 329 331 328 329 338 333 340 333 340 347 347 334 322 325 319 318 313 303 296 289 296 304 294 298 300 289 269 265 266 268 272 270 267 266 288 296 267 138 196 236 220 218 216 222
27 10 352 349 357 359 357 341 339 338 335 334 333 332 335 331 327 321 318 315 324 319 324 328 332 319 316 334 344 340 328 327 317 304 300 298 303 296 278 267 280 293 295 314 318 309 303 304 302 292 287 291 278 268 267 261 245 177 198 211 202 211 215
5 1 356 3 354 359 346 340 331 328 326 331 336 333 328 322 316 316 311 316 320 324 325 323 314 310 318 333 334 323 327 315 304 298 296 318 334 309 296 288 278 285 307 312 302 293 282 277 281 285 278 273 269 281 284 286 264 266 180 179 186 199 208
358 2 355 353 348 353 340 324 326 326 326 327 330 329 326 323 321 318 324 327 323 315 306 301 305 318 332 326 320 320 327 321 316 312 318 322 296 302 314 307 259 207 229 279 296 295 299 295 291 290 281 260 263 261 269 270 286 283 271 173 172 188 208
347 347 344 338 342 333 323 328 321 323 325 324 326 325 322 322 320 318 318 314 313 308 314 324 324 318 310 312 320 319 314 313 314 322 313 295 310 327 321 311 320 229 217 251 304 310 303 304 305 302 295 291 279 271 271 280 280 283 291 278 232 189 185
336 333 333 329 324 325 323 322 322 320 320 318 321 317 318 315 313 312 313 314 313 311 308 300 297 296 301 306 311 309 309 313 310 303 304 324 332 318 309 308 314 326 333 340 339 329 328 321 318 312 309 306 303 297 287 275 263 251 255 264 257 234 230
320 320 320 315 322 323 319 327 319 317 314 312 314 313 309 308 306 308 307 306 306 308 307 303 298 296 295 299 301 303 303 296 296 311 328 324 315 311 327 321 303 298 295 287 323 337 328 315 298 296 293 295 295 295 292 283 277 261 197 204 202 222 244
318 311 312 319 322 326 324 317 316 311 309 307 308 307 308 308 307 307 309 308 307 304 301 301 300 296 288 289 293 300 301 310 320 323 314 311 311 311 303 289 269 257 270 283 277 279 273 233 262 282 297 289 271 267 275 286 292 322 320 309 299 273 240
303 311 316 327 325 319 317 316 311 310 310 313 313 310 307 308 308 307 305 304 304 303 298 295 289 285 286 284 276 284 311 324 317 320 308 300 294 293 295 300 294 247 235 240 253 260 273 274 263 265 258 236 273 271 257 261 273 279 278 282 276 259 260
310 321 320 312 305 305 304 309 320 321 322 318 313 311 313 307 304 304 305 301 299 300 302 304 301 294 288 284 287 291 302 305 304 300 303 308 307 298 298 300 297 297 259 239 242 256 257 257 257 258 262 255 235 253 290 270 263 264 269 270 272 273 265